STARLINK-3765, 52295

Orbit data source: Space-Track

STARLINK-3765, 52295 is a payload satellite owned by SpaceX/Seattle (US) in LEO that was launched on Thu, 21 Apr 2022 UTC via an FALCON 9 launch vehicle from the Air Force Eastern Test Range (AFETR). Payload-class satellites include a variety of spacecraft equipped with specific instruments for various scientific and technological missions. These include communications satellites like Starlink; space stations such as the ISS; scientific satellites like the Hubble; Earth observation satellites from companies like Planet Labs, Umbra, and HawkEye 360; GPS; miniature CubeSats for education and research; and military/defense satellites.

Loading next visibility...
Identifier
52295, 2022-041AL
Orbit
LEO
Country
Flag of USUS
Related business
Manufacturer
SpaceX/Seattle
Mission
Operational Commercial Communications
Bus & Motor
STARLINK, Unknown motor
Mass
297 kg wet, ~275 kg dry
Launch date (UTC)
2022-04-21 (4 years ago)
Launch vehicle
FALCON 9
Launch site
Air Force Eastern Test Range (AFETR)
Object type
Payload
Rocket body
Debris
Shape & HBR
Box + 1 Pan, 10.1 m
Radar Cross Section
11.087 m², Large (>1 m²)

Expand to show TLE details & history
Last TLE update: 3 days ago

TLE from 3 days ago
0 STARLINK-3765
1 52295U 22041AL  26170.89919656  .00000496  00000-0  49237-4 0  9999
2 52295  53.1602   0.1698 0001255  93.2550 266.8585 15.08832926229932
Epoch: 2026-06-19T21:34Z
TLE epoch observation values (Epoch: 2026-06-19T21:34:50.582Z)
Latitude
-0.00004°
Longitude
128.33746°
Altitude
540.704 km
Speed
7.593 km/s
True Right ascension
00h 00m 40s
True Declination
0° 00' 00"
Sunlit
Object was in daylight at epoch
Visualization orbit readout
Latitude
Unknown
Longitude
Unknown
Altitude
Unknown
Speed
Unknown
Apparent Right ascension
Unknown
Apparent Declination
Unknown
Sunlit
N/A
Visualization observer readout
Local Sidereal Time
21:23:29
Azimuth
Unknown
Elevation
Unknown
Doppler factor
Unknown
Orbital elements
Apogee altitude
540.887 km
Perigee altitude
539.151 km
Semi-major axis
6,918.156 km
Eccentricity
0.00013
Inclination
53.1602°
RAAN
0.1698°
Arg. of periapsis
93.255°
True anomaly
266.84414°
Mean anomaly
266.8585°
Eccentric anomaly
266.85132°
Mean motion
3.77188 °/min
Orbital period
95.44 mins
BSTAR
0.000049237
Loading maneuver chart data...
Computing Atmospheric mass density...
Loading historical data...
Loading historical data...
Loading historical data...
Loading historical data...
Loading historical data...
Loading historical data...
Loading historical data...

Documentation

Showing up to 5 results
|